This is the latest recevied weather packets stored in our database for station/object K4DNM. If no packets are shown the sender has not sent any weather packets the latest 10 day(s).
| Time | Temp. | Humidity | Pressure | Rain* | Wind** | Luminosity | Snow |
|---|---|---|---|---|---|---|---|
| 1787774491 | 31.67° C | 49% | 1015.7 hPa | 0 mm | - | 453 W/m² | - |
| 1787774196 | 31.67° C | 47% | 1015.7 hPa | 0 mm | - | 624 W/m² | - |
| 1787773887 | 31.67° C | 47% | 1015.7 hPa | 0 mm | - | 636 W/m² | - |
| 1787773585 | 31.67° C | 48% | 1015.7 hPa | 0 mm | - | 637 W/m² | - |
| 1787773284 | 31.67° C | 47% | 1015.7 hPa | 0 mm | - | 663 W/m² | - |
| 1787773044 | 31.67° C | 47% | 1015.8 hPa | 0 mm | - | 666 W/m² | - |
| 1787772682 | 31.67° C | 47% | 1015.8 hPa | 0 mm | - | 697 W/m² | - |
| 1787772380 | 31.67° C | 48% | 1015.9 hPa | 0 mm | - | 710 W/m² | - |
| 1787772078 | 31.67° C | 46% | 1016 hPa | 0 mm | - | 735 W/m² | - |
| 1787771777 | 31.67° C | 47% | 1016 hPa | 0 mm | - | 738 W/m² | - |
| 1787771481 | 31.67° C | 45% | 1016.1 hPa | 0 mm | - | 772 W/m² | - |
| 1787771182 | 31.67° C | 46% | 1016.2 hPa | 0 mm | - | 678 W/m² | - |
| 1787770879 | 31.67° C | 45% | 1016.2 hPa | 0 mm | - | 778 W/m² | - |
| 1787770581 | 31.67° C | 43% | 1016.2 hPa | 0 mm | - | 821 W/m² | - |
| 1787770279 | 31.11° C | 44% | 1016.3 hPa | 0 mm | - | 748 W/m² | - |
| 1787769975 | 31.67° C | 43% | 1016.4 hPa | 0 mm | - | 647 W/m² | - |
| 1787769675 | 31.67° C | 47% | 1016.5 hPa | 0 mm | - | 839 W/m² | - |
| 1787769432 | 31.67° C | 44% | 1016.5 hPa | 0 mm | - | 849 W/m² | - |
| 1787769075 | 31.11° C | 48% | 1016.5 hPa | 0 mm | - | 839 W/m² | - |
| 1787768829 | 31.67° C | 46% | 1016.5 hPa | 0 mm | - | 865 W/m² | - |
| 1787768468 | 31.11° C | 49% | 1016.5 hPa | 0 mm | - | 868 W/m² | - |
| 1787768169 | 31.67° C | 47% | 1016.7 hPa | 0 mm | - | 220 W/m² | - |
| 1787767866 | 32.22° C | 46% | 1016.7 hPa | 0 mm | - | 945 W/m² | - |
| 1787767566 | 31.67° C | 46% | 1016.7 hPa | 0 mm | - | 877 W/m² | - |
| 1787767273 | 31.67° C | 48% | 1016.8 hPa | 0 mm | - | 858 W/m² | - |
* Rain latest hour (hover to see other rain measurements)
** Current wind speed in m/s (hover to see current wind gust speed)